TSAT-1A

operational
NORAD ID: 59442 Int'l Des: 2024-066 Owner: TASL Country: IN
LEOCIRCULAR

About TSAT-1A

Description loading...

Live Position

Loading 3D Globe...

Upcoming Passes

Altitude History

Altitude vs Time

uPlot chart will show altitude changes over time

Two-Line Element Set

1 59442U 24066A 26061.20196914 .00017388 00000-0 54410-3 0 9993
2 59442 45.6179 344.2486 0010468 225.7668 134.2367 15.32936494105349
Epoch: Mar 2, 2026 • Age: 27 hours

Current Status

Altitude 471.6 km
Velocity 7.63 km/s
Sub-Earth Point 1.71°N, 138.74°E
Launch Date Apr 7, 2024
Age 1.9 years
Type other

Technical Details

Classification Payload
Mass 42.00 kg
Dry Mass 38.00 kg
Total Mass 42.00 kg
Length 0.80 m
Diameter 0.50 m
Span 0.80 m
Shape Box
Manufacturer URUGUS
Bus Type Newsat V
Phase Status In Orbit
Owner/State TASL/IN

Large Constellations

Loading constellations...